Regional Weather Roundup
Issued by NWS Green Bay, WI

Home | Current Version | Previous Version | Graphics & Text | Print | Product List | Glossary Off
Versions: 1 2 3 4 5 6 7 8 9 10 11 12 13 14 15 16 17 18 19 20 21 22 23 24 25 26 27 28 29 30 31 32 33 34 35 36 37 38 39 40 41 42 43 44 45 46 47 48 49 50

000
ASUS43 KGRB 240800
RWRGRB

NORTH-CENTRAL AND NORTHEAST WISCONSIN REGIONAL WEATHER ROUNDUP
NATIONAL WEATHER SERVICE GREEN BAY WI
200 AM CST FRI NOV 24 2017

WIZ005-009-010>012-018-019-240900-
NORTH CENTRAL WISCONSIN

CITY           SKY/WX    TMP DP  RH WIND       PRES   REMARKS
IRONWOOD       CLOUDY    42  30  62 SW14G24   29.41F
MANITOWISH WTR NOT AVBL
ARBOR VITAE    NOT AVBL
EAGLE RIVER    NOT AVBL
LAND O LAKES   NOT AVBL
RHINELANDER    CLOUDY    38  27  64 SW12G24   29.54F
PHILLIPS       NOT AVBL
ANTIGO         NOT AVBL
TOMAHAWK       NOT AVBL
MERRILL        NOT AVBL
$$

WIZ013-073-240900-
NORTHEAST WISCONSIN

CITY           SKY/WX    TMP DP  RH WIND       PRES   REMARKS
IRON MOUNTAIN  CLOUDY    35  23  61 S8        29.55F
MARINETTE      CLOUDY    38  27  64 SW10      29.65F
$$

WIZ017-030-035>037-045-240900-
CENTRAL WISCONSIN

CITY           SKY/WX    TMP DP  RH WIND       PRES   REMARKS
MEDFORD        NOT AVBL
WAUSAU         MOCLDY    36  26  67 S10       29.60F
MOSINEE        NOT AVBL
MARSHFIELD     PTCLDY    36  25  64 S9        29.59F
WISC RAPIDS    MOCLDY    38  27  64 S8        29.65F
STEVENS POINT  NOT AVBL
WAUPACA        NOT AVBL
SHAWANO        NOT AVBL
CLINTONVILLE   NOT AVBL
WAUTOMA        PTCLDY    33  24  69 S6        29.69F
$$

WIZ038-039-048-051-240900-
FOX VALLEY

CITY           SKY/WX    TMP DP  RH WIND       PRES   REMARKS
NWS GREEN BAY  CLEAR     36  28  73 S10       29.68F
APPLETON       NOT AVBL
OSHKOSH        CLEAR     38  27  64 SW14G20   29.69F
FOND DU LAC    CLEAR     39  26  59 SW15G24   29.71F
$$

WIZ022-050-052-240900-
EAST CENTRAL WISCONSIN

CITY           SKY/WX    TMP DP  RH WIND       PRES   REMARKS
EPHRAIM        NOT AVBL
WASHINGTON ISL NOT AVBL
STURGEON BAY   CLOUDY    36  25  64 S12       29.67F
MANITOWOC      CLOUDY    33  25  72 S8        29.71F
SHEBOYGAN      PTCLDY    34  27  75 SW9       29.72F
$$

LMZ563-521-522-541>543-240900-
LAKESHORE

STATION/POSITION TIME  TEMP    WIND        PRES    VSBY  WAVE
                       AIR SEA DIR/SP/G                  HT/PER
                 (UTC) (F)     (DEG/KT/KT) (MB)    (MI)  (FT/S)
SHEBOYGAN LKSHOR 0700   37     200/ 10/ 11 1008.1F
KEWAUNEE LKSHORE 0730   36     200/  7/  8 1005.5F
NORTHPORT PIER   0740   38     170/  4/ 12 1004.7F
N MID LAKE BUOY  0650   44 47  200/ 23/ 27 1006.1F         5/ 5
SISTER BAY LKSHO 0719   38     190/ 12/ 14   N/A
MENOMINEE LKSHOR 0730   38     190/ 11/ 16 1004.3R
$$



USA.gov is the U.S. government's official web portal to all federal, state and local government web resources and services.